Abilene Dyess, TX

8:54 AM CST on November 17, 2019 (GMT -0600)
Dyess Air Force Base

Weather History for KDYS - July, 2019

Change the Weather History Date:

Tuesday, July 23, 2019

  Actual Average Record
Temperature  
Mean Temperature 77 °F -  
Max Temperature 88 °F 95 °F 104 °F (1998)
Min Temperature 66 °F 74 °F 66 °F (2007)
Cooling Degree Days 12    
Growing Degree Days 27 (Base 50)    
Moisture  
Dew Point 53 °F    
Average Humidity 42    
Maximum Humidity 73    
Minimum Humidity 24    
Precipitation  
Precipitation 0.00 in - - ()
Sea Level Pressure  
Sea Level Pressure 30.06 in    
Wind  
Wind Speed 9 mph (NE)    
Max Wind Speed 20 mph    
Max Gust Speed 25 mph    
Visibility 10 miles    
Events      
Averages and records for this station are not official NWS values.
T = Trace of Precipitation, MM = Missing Value Source: NWS Daily Summary

Daily Weather History Graph

Daily Weather History Graph

Search for Another Location

Airport or City:

Astronomy

Jul. 23, 2019 Rise Set
Actual Time 6:47 AM CDT 8:43 PM CDT
Civil Twilight 6:20 AM CDT 9:10 PM CDT
Nautical Twilight 5:47 AM CDT 9:43 PM CDT
Astronomical Twilight 5:12 AM CDT 10:19 PM CDT
Moon 12:23 AM CDT (7/23) 12:43 PM CDT (7/23)
Length of Visible Light 14h 50m
Length of Day
13h 55m
Waning Gibbous, 63% of the Moon is Illuminated
Jul 23
Waning Gibbous
Jul 24
Last Quarter
Jul 31
New
Aug 7
First Quarter
Aug 15
Full

Hourly Weather History & Observations

Time (CDT) Temp. Heat Index Dew Point Humidity Pressure Visibility Wind Dir Wind Speed Gust Speed Precip Events Conditions
12:56 AM 75.4 °F - 62.2 °F 64% 30.05 in 10.0 mi NE 9.2 mph - N/A   Clear
1:56 AM 75.0 °F - 61.2 °F 62% 30.04 in 10.0 mi NE 8.1 mph - N/A   Clear
2:56 AM 72.9 °F - 60.4 °F 65% 30.04 in 10.0 mi NE 9.2 mph - N/A   Clear
3:56 AM 71.4 °F - 59.4 °F 66% 30.05 in 10.0 mi ENE 5.8 mph - N/A   Clear
4:56 AM 70.2 °F - 58.3 °F 66% 30.06 in 10.0 mi ENE 3.5 mph - N/A   Clear
5:56 AM 68.5 °F - 57.6 °F 68% 30.08 in 10.0 mi ENE 3.5 mph - N/A   Clear
6:56 AM 66.0 °F - 57.0 °F 73% 30.11 in 10.0 mi NW 4.6 mph - N/A   Clear
7:56 AM 70.0 °F - 58.5 °F 67% 30.12 in 10.0 mi Calm Calm - N/A   Clear
8:56 AM 73.6 °F - 57.4 °F 57% 30.12 in 10.0 mi ENE 6.9 mph - N/A   Clear
9:56 AM 77.5 °F - 55.8 °F 47% 30.14 in 10.0 mi ENE 11.5 mph - N/A   Clear
10:56 AM 79.5 °F - 54.3 °F 42% 30.12 in 10.0 mi NE 10.4 mph - N/A   Clear
11:56 AM 81.7 °F 81.0 °F 53.6 °F 38% 30.12 in 10.0 mi NNE 9.2 mph - N/A   Clear
12:56 PM 82.2 °F 81.3 °F 53.2 °F 37% 30.11 in 10.0 mi NE 15.0 mph 24.2 mph N/A   Partly Cloudy
1:23 PM 84.2 °F 82.8 °F 53.6 °F 35% 30.08 in 10.0 mi ENE 13.8 mph 21.9 mph N/A   Partly Cloudy
1:56 PM 85.5 °F 83.7 °F 53.1 °F 33% 30.07 in 10.0 mi NE 13.8 mph - N/A   Scattered Clouds
2:56 PM 86.4 °F - 50.4 °F 29% 30.06 in 10.0 mi NNE 18.4 mph 23.0 mph N/A   Scattered Clouds
2:59 PM 86.0 °F - 51.8 °F 31% 30.05 in 10.0 mi NNE 12.7 mph 23.0 mph N/A   Scattered Clouds
3:41 PM 87.8 °F - 50.0 °F 27% 30.05 in 10.0 mi NE 19.6 mph 25.3 mph N/A   Scattered Clouds
3:49 PM 86.0 °F - 50.0 °F 29% 30.04 in 10.0 mi North 19.6 mph - N/A   Scattered Clouds
3:56 PM 86.7 °F - 49.6 °F 28% 30.04 in 10.0 mi NNE 15.0 mph - N/A   Scattered Clouds
4:02 PM 86.0 °F - 50.0 °F 29% 30.04 in 10.0 mi NE 18.4 mph - N/A   Scattered Clouds
4:45 PM 87.8 °F - 48.2 °F 25% 30.02 in 10.0 mi North 13.8 mph 21.9 mph N/A   Partly Cloudy
4:56 PM 88.0 °F - 47.7 °F 25% 30.02 in 10.0 mi NE 12.7 mph 23.0 mph N/A   Partly Cloudy
5:31 PM 87.8 °F - 48.2 °F 25% 30.01 in 10.0 mi NNE 12.7 mph - N/A   Clear
5:56 PM 87.4 °F - 46.2 °F 24% 30.00 in 10.0 mi NE 13.8 mph 21.9 mph N/A   Clear
6:56 PM 86.2 °F - 45.1 °F 24% 30.01 in 10.0 mi NE 10.4 mph - N/A   Clear
7:56 PM 84.0 °F - 45.5 °F 26% 30.01 in 10.0 mi NE 9.2 mph - N/A   Clear
8:56 PM 79.2 °F - 46.8 °F 32% 30.02 in 10.0 mi ENE 6.9 mph - N/A   Clear
9:56 PM 75.9 °F - 47.8 °F 37% 30.03 in 10.0 mi East 4.6 mph - N/A   Clear
10:56 PM 73.9 °F - 48.7 °F 41% 30.04 in 10.0 mi ESE 3.5 mph - N/A   Clear
11:56 PM 71.1 °F - 49.3 °F 46% 30.06 in 10.0 mi SE 4.6 mph - N/A   Clear